Вернуться в каталог

CZ-6A DEB

АктивенSSO
NORAD 54962·DEBRIS·🇨🇳 China

Запущен Nov 11, 2022 с Taiyuan Satellite Launch Center

Loading…

Ближайшие Пролёты (ближайшие 24 часа)

TLE

СвежийSource: Space-Track

Эпоха: Sep 14, 2026, 10:12 UTC

1 54962U 22151TB  26257.42529717  .00000794  00000-0  17884-3 0  9997
2 54962  98.5794 324.0162 0126275 346.1252  13.6485 14.54653902203117

Отслеживайте CZ-6A DEB в реальном времени с AllMySat

Download on the App Store